EZY79YA EGGW-LIRP

Flight info

Callsign EZY79YA
Flight time 1h 54m
Altitude 25000
Route RODNI N27 ICTAM Q63 CPT DCT MID/N0453F370 UL612 OGULO DCT OKASI DCT OKEKO DCT MOU DCT MADIV DCT MOKIP DCT TUFTA DCT GEVEA/N0463F330 DCT MOBLO DCT LURAG DCT OBUXA DCT NEDED DCT LAGEN DCT ANAKI DCT IXITO DCT TIDKA/N0403F190 L50 KONER
Aircraft A319/M-SDE3FGHIRWY/LB1

Departure

Time 2026-05-05 11:11
Airport London Luton Airport (EGGW)

Arrival

Time 2026-05-05 13:05
Airport Pisa International Airport (LIRP)
Time Latitude Longitude Altitude Speed Heading
2026-05-05 10:35 51.88152 -0.37564 517 ft 0 kts 202°
2026-05-05 11:00 51.88167 -0.37554 516 ft 4 kts 202°
2026-05-05 11:00 51.88184 -0.37542 516 ft 4 kts 236°
2026-05-05 11:01 51.88193 -0.37510 516 ft 3 kts 252°
2026-05-05 11:01 51.88201 -0.37468 516 ft 4 kts 252°
2026-05-05 11:01 51.88205 -0.37452 516 ft 0 kts 252°
2026-05-05 11:04 51.88204 -0.37455 516 ft 1 kts 251°
2026-05-05 11:04 51.88203 -0.37464 516 ft 2 kts 255°
2026-05-05 11:04 51.88204 -0.37504 516 ft 3 kts 283°
2026-05-05 11:04 51.88208 -0.37533 516 ft 4 kts 282°
2026-05-05 11:05 51.88206 -0.37596 517 ft 5 kts 247°
2026-05-05 11:05 51.88193 -0.37629 519 ft 2 kts 238°
2026-05-05 11:05 51.88180 -0.37665 522 ft 5 kts 240°
2026-05-05 11:05 51.88169 -0.37695 523 ft 3 kts 239°
2026-05-05 11:06 51.88116 -0.37811 523 ft 15 kts 224°
2026-05-05 11:06 51.88034 -0.37914 523 ft 15 kts 217°
2026-05-05 11:06 51.87949 -0.38008 523 ft 15 kts 201°
2026-05-05 11:06 51.87850 -0.37992 523 ft 15 kts 154°
2026-05-05 11:07 51.87785 -0.37856 523 ft 16 kts 117°
2026-05-05 11:07 51.87734 -0.37684 521 ft 19 kts 116°
2026-05-05 11:07 51.87663 -0.37490 522 ft 20 kts 142°
2026-05-05 11:07 51.87548 -0.37467 522 ft 16 kts 198°
2026-05-05 11:08 51.87489 -0.37616 523 ft 17 kts 253°
2026-05-05 11:08 51.87456 -0.37802 522 ft 18 kts 256°
2026-05-05 11:08 51.87425 -0.37991 524 ft 15 kts 246°
2026-05-05 11:08 51.87355 -0.38075 523 ft 0 kts 204°
2026-05-05 11:09 51.87353 -0.38077 523 ft 2 kts 204°
2026-05-05 11:09 51.87292 -0.38121 522 ft 14 kts 204°
2026-05-05 11:09 51.87252 -0.38060 524 ft 6 kts 73°
2026-05-05 11:10 51.87261 -0.38014 524 ft 26 kts 73°
2026-05-05 11:10 51.87382 -0.37320 522 ft 99 kts 74°
2026-05-05 11:10 51.87626 -0.35945 520 ft 153 kts 73°
2026-05-05 11:10 51.87943 -0.34264 1112 ft 152 kts 72°
2026-05-05 11:11 51.88226 -0.32646 1849 ft 151 kts 71°
2026-05-05 11:11 51.88533 -0.30907 2223 ft 171 kts 71°
2026-05-05 11:11 51.88883 -0.28937 2537 ft 194 kts 70°
2026-05-05 11:11 51.89225 -0.26684 2820 ft 221 kts 83°
2026-05-05 11:12 51.88813 -0.24143 3222 ft 254 kts 122°
2026-05-05 11:12 51.87382 -0.22337 3862 ft 275 kts 159°
2026-05-05 11:12 51.85467 -0.22162 4671 ft 282 kts 191°
2026-05-05 11:12 51.83754 -0.23621 4926 ft 281 kts 226°
2026-05-05 11:13 51.82812 -0.26312 5083 ft 279 kts 257°
2026-05-05 11:13 51.82534 -0.29413 6014 ft 278 kts 267°
2026-05-05 11:13 51.82406 -0.32524 7060 ft 278 kts 268°
2026-05-05 11:13 51.82314 -0.35658 7960 ft 281 kts 272°
2026-05-05 11:14 51.82432 -0.38824 8855 ft 283 kts 276°
2026-05-05 11:14 51.82606 -0.42008 9757 ft 286 kts 276°
2026-05-05 11:14 51.82783 -0.45219 10351 ft 300 kts 276°
2026-05-05 11:14 51.82982 -0.48715 10643 ft 324 kts 276°
2026-05-05 11:15 51.83202 -0.52469 10858 ft 347 kts 276°
2026-05-05 11:15 51.83438 -0.56508 11212 ft 363 kts 276°
2026-05-05 11:15 51.83677 -0.60543 11828 ft 368 kts 276°
2026-05-05 11:15 51.83924 -0.64696 12522 ft 373 kts 276°
2026-05-05 11:16 51.84133 -0.68895 13206 ft 377 kts 271°
2026-05-05 11:16 51.83745 -0.73106 13856 ft 384 kts 252°
2026-05-05 11:16 51.82512 -0.76931 14475 ft 388 kts 233°
2026-05-05 11:16 51.80590 -0.80007 15129 ft 390 kts 220°
2026-05-05 11:17 51.78501 -0.82837 15722 ft 394 kts 219°
2026-05-05 11:17 51.76390 -0.85676 15943 ft 395 kts 219°
2026-05-05 11:17 51.74279 -0.88505 15988 ft 394 kts 219°
2026-05-05 11:17 51.72165 -0.91331 16096 ft 397 kts 219°
2026-05-05 11:18 51.70033 -0.94177 16787 ft 398 kts 219°
2026-05-05 11:18 51.67893 -0.97035 17469 ft 401 kts 219°
2026-05-05 11:18 51.65744 -0.99903 18126 ft 402 kts 219°
2026-05-05 11:18 51.63583 -1.02784 18714 ft 404 kts 219°
2026-05-05 11:19 51.61414 -1.05674 19248 ft 406 kts 219°
2026-05-05 11:19 51.59238 -1.08577 19788 ft 407 kts 219°
2026-05-05 11:19 51.57056 -1.11486 20350 ft 407 kts 219°
2026-05-05 11:19 51.54797 -1.14255 20835 ft 410 kts 211°
2026-05-05 11:20 51.52175 -1.16071 21285 ft 413 kts 195°
2026-05-05 11:20 51.49325 -1.16671 21784 ft 415 kts 180°
2026-05-05 11:20 51.46458 -1.16050 22258 ft 419 kts 165°
2026-05-05 11:20 51.43758 -1.14223 22674 ft 425 kts 150°
2026-05-05 11:21 51.41391 -1.11344 23131 ft 429 kts 141°
2026-05-05 11:21 51.39113 -1.08228 23552 ft 432 kts 141°
2026-05-05 11:21 51.36824 -1.05088 23920 ft 435 kts 141°
2026-05-05 11:21 51.34523 -1.01934 24303 ft 436 kts 141°
2026-05-05 11:22 51.32216 -0.98773 24674 ft 437 kts 141°
2026-05-05 11:22 51.29904 -0.95617 25095 ft 437 kts 141°
2026-05-05 11:22 51.27585 -0.92460 25491 ft 439 kts 141°
2026-05-05 11:22 51.25256 -0.89298 25847 ft 440 kts 141°
2026-05-05 11:23 51.22916 -0.86129 26186 ft 442 kts 141°
2026-05-05 11:23 51.20565 -0.82948 26512 ft 444 kts 141°
2026-05-05 11:23 51.18104 -0.79970 26835 ft 445 kts 145°
2026-05-05 11:23 51.15586 -0.77088 27177 ft 446 kts 146°
2026-05-05 11:24 51.13042 -0.74254 27517 ft 447 kts 146°
2026-05-05 11:24 51.10473 -0.71437 27837 ft 449 kts 147°
2026-05-05 11:24 51.07902 -0.68624 28258 ft 448 kts 147°
2026-05-05 11:24 51.05347 -0.65819 28751 ft 445 kts 147°
2026-05-05 11:25 51.02810 -0.63018 29265 ft 443 kts 147°
2026-05-05 11:25 51.00291 -0.60222 29772 ft 440 kts 147°
2026-05-05 11:25 50.97787 -0.57439 30251 ft 438 kts 147°
2026-05-05 11:25 50.95294 -0.54671 30641 ft 437 kts 147°
2026-05-05 11:26 50.92798 -0.51912 30996 ft 437 kts 147°
2026-05-05 11:26 50.90304 -0.49162 31341 ft 437 kts 147°
2026-05-05 11:26 50.87806 -0.46412 31692 ft 437 kts 147°
2026-05-05 11:26 50.85305 -0.43661 32058 ft 437 kts 147°
2026-05-05 11:27 50.82807 -0.40913 32403 ft 437 kts 147°
2026-05-05 11:27 50.80309 -0.38167 32763 ft 438 kts 147°
2026-05-05 11:27 50.77804 -0.35421 33107 ft 438 kts 147°
2026-05-05 11:27 50.75300 -0.32681 33443 ft 438 kts 147°
2026-05-05 11:28 50.72794 -0.29942 33792 ft 438 kts 147°
2026-05-05 11:28 50.70287 -0.27203 34112 ft 438 kts 147°
2026-05-05 11:28 50.67778 -0.24464 34398 ft 439 kts 147°
2026-05-05 11:28 50.65264 -0.21726 34667 ft 439 kts 147°
2026-05-05 11:29 50.62749 -0.18990 34957 ft 439 kts 147°
2026-05-05 11:29 50.60231 -0.16252 35221 ft 440 kts 147°
2026-05-05 11:29 50.57710 -0.13521 35466 ft 440 kts 147°
2026-05-05 11:29 50.55185 -0.10789 35706 ft 441 kts 147°
2026-05-05 11:30 50.52653 -0.08055 35948 ft 441 kts 147°
2026-05-05 11:30 50.50120 -0.05324 36185 ft 442 kts 147°
2026-05-05 11:30 50.47588 -0.02594 36407 ft 442 kts 147°
2026-05-05 11:30 50.45050 0.00141 36624 ft 442 kts 147°
2026-05-05 11:31 50.42514 0.02875 36843 ft 443 kts 147°
2026-05-05 11:31 50.39973 0.05609 36946 ft 444 kts 147°
2026-05-05 11:31 50.37425 0.08347 36962 ft 444 kts 147°
2026-05-05 11:32 50.32315 0.13817 36957 ft 445 kts 147°
2026-05-05 11:32 50.27193 0.19286 36953 ft 446 kts 147°
2026-05-05 11:33 50.22066 0.24741 36954 ft 446 kts 147°
2026-05-05 11:33 50.16924 0.30161 36957 ft 446 kts 148°
2026-05-05 11:34 50.11749 0.35470 36956 ft 445 kts 148°
2026-05-05 11:34 50.06571 0.40727 36960 ft 444 kts 148°
2026-05-05 11:35 50.01412 0.45983 36958 ft 443 kts 149°
2026-05-05 11:35 49.96273 0.51229 36963 ft 441 kts 148°
2026-05-05 11:36 49.91144 0.56452 36951 ft 440 kts 148°
2026-05-05 11:36 49.86059 0.61621 36954 ft 440 kts 147°
2026-05-05 11:37 49.81273 0.67548 36944 ft 441 kts 142°
2026-05-05 11:37 49.76514 0.73529 36936 ft 441 kts 142°
2026-05-05 11:38 49.71753 0.79504 36928 ft 441 kts 142°
2026-05-05 11:38 49.66983 0.85454 36929 ft 441 kts 142°
2026-05-05 11:39 49.62222 0.91410 36924 ft 441 kts 143°
2026-05-05 11:39 49.57458 0.97348 36916 ft 440 kts 143°
2026-05-05 11:40 49.52699 1.03273 36911 ft 440 kts 143°
2026-05-05 11:40 49.47937 1.09168 36916 ft 439 kts 142°
2026-05-05 11:41 49.43186 1.15042 36908 ft 438 kts 142°
2026-05-05 11:41 49.38436 1.20895 36905 ft 438 kts 143°
2026-05-05 11:42 49.33685 1.26730 36901 ft 437 kts 142°
2026-05-05 11:42 49.29739 1.31575 36917 ft 438 kts 142°
2026-05-05 11:43 49.24981 1.37403 36908 ft 437 kts 143°
2026-05-05 11:43 49.19466 1.44144 36891 ft 436 kts 143°
2026-05-05 11:44 49.14727 1.49904 36882 ft 435 kts 143°
2026-05-05 11:44 49.10753 1.54724 36886 ft 435 kts 143°
2026-05-05 11:45 49.06038 1.60436 36885 ft 436 kts 142°
2026-05-05 11:45 49.01286 1.66174 36873 ft 436 kts 142°
2026-05-05 11:46 48.96527 1.71906 36870 ft 436 kts 142°
2026-05-05 11:46 48.91732 1.77678 36854 ft 437 kts 143°
2026-05-05 11:47 48.86996 1.83363 36855 ft 437 kts 143°
2026-05-05 11:47 48.82224 1.89086 36873 ft 437 kts 143°
2026-05-05 11:48 48.75056 1.97631 36870 ft 437 kts 143°
2026-05-05 11:48 48.70277 2.03311 36868 ft 436 kts 143°
2026-05-05 11:49 48.65500 2.08977 36864 ft 436 kts 143°
2026-05-05 11:49 48.60714 2.14640 36861 ft 437 kts 143°
2026-05-05 11:50 48.56015 2.20471 36842 ft 438 kts 136°
2026-05-05 11:50 48.51723 2.27015 36827 ft 439 kts 136°
2026-05-05 11:51 48.47421 2.33549 36828 ft 439 kts 136°
2026-05-05 11:51 48.43104 2.40062 36827 ft 439 kts 136°
2026-05-05 11:52 48.38776 2.46569 36829 ft 440 kts 136°
2026-05-05 11:52 48.34443 2.53081 36822 ft 441 kts 136°
2026-05-05 11:53 48.30095 2.59595 36815 ft 441 kts 139°
2026-05-05 11:53 48.25053 2.64710 36813 ft 437 kts 156°
2026-05-05 11:54 48.19538 2.68573 36819 ft 438 kts 154°
2026-05-05 11:54 48.14160 2.72881 36815 ft 439 kts 152°
2026-05-05 11:55 48.08819 2.77334 36812 ft 440 kts 153°
2026-05-05 11:55 48.03244 2.81072 36817 ft 440 kts 158°
2026-05-05 11:56 47.97607 2.84637 36829 ft 440 kts 158°
2026-05-05 11:56 47.91959 2.88191 36830 ft 440 kts 158°
2026-05-05 11:57 47.86322 2.91755 36821 ft 439 kts 158°
2026-05-05 11:57 47.80694 2.95313 36807 ft 440 kts 158°
2026-05-05 11:58 47.75067 2.98866 36828 ft 439 kts 158°
2026-05-05 11:58 47.69444 3.02405 36829 ft 439 kts 158°
2026-05-05 11:59 47.63823 3.05931 36840 ft 438 kts 159°
2026-05-05 11:59 47.58204 3.09446 36842 ft 438 kts 159°
2026-05-05 12:00 47.52582 3.12944 36843 ft 438 kts 159°
2026-05-05 12:00 47.47000 3.16416 36847 ft 438 kts 159°
2026-05-05 12:01 47.41379 3.19918 36849 ft 438 kts 159°
2026-05-05 12:01 47.35753 3.23403 36850 ft 438 kts 159°
2026-05-05 12:02 47.30129 3.26883 36852 ft 439 kts 159°
2026-05-05 12:02 47.24503 3.30368 36857 ft 439 kts 159°
2026-05-05 12:03 47.18875 3.33836 36849 ft 438 kts 159°
2026-05-05 12:03 47.13242 3.37283 36861 ft 438 kts 159°
2026-05-05 12:04 47.07617 3.40717 36865 ft 438 kts 159°
2026-05-05 12:04 47.01984 3.44156 36870 ft 438 kts 159°
2026-05-05 12:05 46.96354 3.47586 36870 ft 438 kts 159°
2026-05-05 12:05 46.90725 3.51026 36866 ft 438 kts 159°
2026-05-05 12:06 46.85092 3.54449 36861 ft 439 kts 160°
2026-05-05 12:06 46.79450 3.57857 36864 ft 439 kts 160°
2026-05-05 12:07 46.74085 3.62104 36869 ft 444 kts 143°
2026-05-05 12:07 46.71885 3.65286 36868 ft 448 kts 131°
2026-05-05 12:07 46.70150 3.69079 36864 ft 453 kts 120°
2026-05-05 12:08 46.68970 3.73351 36868 ft 458 kts 108°
2026-05-05 12:08 46.68200 3.77862 36860 ft 459 kts 107°
2026-05-05 12:08 46.66671 3.86892 36859 ft 460 kts 107°
2026-05-05 12:09 46.65116 3.95923 36859 ft 460 kts 107°
2026-05-05 12:09 46.63548 4.04959 36842 ft 461 kts 107°
2026-05-05 12:10 46.61974 4.13996 36856 ft 461 kts 107°
2026-05-05 12:10 46.60395 4.23036 36862 ft 461 kts 108°
2026-05-05 12:11 46.58810 4.32066 36867 ft 461 kts 108°
2026-05-05 12:11 46.57214 4.41098 36876 ft 461 kts 108°
2026-05-05 12:12 46.55611 4.50124 36869 ft 461 kts 108°
2026-05-05 12:12 46.54001 4.59140 36877 ft 461 kts 108°
2026-05-05 12:13 46.52384 4.68155 36887 ft 461 kts 108°
2026-05-05 12:13 46.50755 4.77164 36889 ft 461 kts 108°
2026-05-05 12:14 46.49121 4.86163 36868 ft 461 kts 108°
2026-05-05 12:14 46.47488 4.95162 36874 ft 461 kts 108°
2026-05-05 12:15 46.45853 5.04097 36881 ft 461 kts 108°
2026-05-05 12:15 46.44185 5.13157 36875 ft 462 kts 109°
2026-05-05 12:16 46.42524 5.22174 36882 ft 463 kts 109°
2026-05-05 12:16 46.40859 5.31201 36865 ft 464 kts 109°
2026-05-05 12:17 46.39178 5.40250 36878 ft 465 kts 109°
2026-05-05 12:17 46.37504 5.49240 36890 ft 466 kts 109°
2026-05-05 12:18 46.35814 5.58292 36895 ft 466 kts 109°
2026-05-05 12:18 46.34116 5.67348 36883 ft 466 kts 109°
2026-05-05 12:19 46.32408 5.76405 36895 ft 467 kts 109°
2026-05-05 12:19 46.30693 5.85468 36906 ft 468 kts 109°
2026-05-05 12:20 46.28974 5.94540 36913 ft 468 kts 109°
2026-05-05 12:20 46.27240 6.03617 36899 ft 468 kts 110°
2026-05-05 12:21 46.24861 6.12248 36894 ft 458 kts 126°
2026-05-05 12:21 46.20891 6.19265 36908 ft 447 kts 142°
2026-05-05 12:22 46.16320 6.25370 36899 ft 449 kts 142°
2026-05-05 12:22 46.11744 6.31502 36909 ft 449 kts 142°
2026-05-05 12:23 46.07153 6.37629 36893 ft 450 kts 142°
2026-05-05 12:23 46.02555 6.43734 36907 ft 450 kts 142°
2026-05-05 12:24 45.97952 6.49837 36909 ft 450 kts 142°
2026-05-05 12:24 45.93351 6.55943 36927 ft 450 kts 143°
2026-05-05 12:25 45.88752 6.62031 36941 ft 450 kts 143°
2026-05-05 12:25 45.84141 6.68114 36952 ft 450 kts 143°
2026-05-05 12:26 45.79525 6.74174 36945 ft 450 kts 143°
2026-05-05 12:26 45.74897 6.80210 36942 ft 450 kts 144°
2026-05-05 12:27 45.70266 6.86240 36954 ft 450 kts 144°
2026-05-05 12:27 45.65629 6.92256 36967 ft 450 kts 144°
2026-05-05 12:28 45.60992 6.98264 36979 ft 450 kts 144°
2026-05-05 12:28 45.57136 7.03251 36961 ft 450 kts 144°
2026-05-05 12:29 45.52661 7.09532 36957 ft 458 kts 135°
2026-05-05 12:29 45.49141 7.17226 36983 ft 466 kts 128°
2026-05-05 12:30 45.45714 7.25062 36991 ft 466 kts 128°
2026-05-05 12:30 45.42268 7.32884 36993 ft 466 kts 129°
2026-05-05 12:31 45.38065 7.39643 36998 ft 449 kts 147°
2026-05-05 12:31 45.33156 7.45058 36989 ft 446 kts 149°
2026-05-05 12:32 45.28246 7.50448 37028 ft 446 kts 149°
2026-05-05 12:32 45.23340 7.55818 37036 ft 445 kts 149°
2026-05-05 12:33 45.18463 7.61135 37037 ft 445 kts 149°
2026-05-05 12:33 45.13555 7.66475 37037 ft 445 kts 149°
2026-05-05 12:34 45.08648 7.71804 36971 ft 445 kts 149°
2026-05-05 12:34 45.03734 7.77137 36975 ft 445 kts 149°
2026-05-05 12:35 44.98817 7.82462 36978 ft 445 kts 149°
2026-05-05 12:35 44.93892 7.87775 36985 ft 445 kts 149°
2026-05-05 12:36 44.88969 7.93081 36969 ft 445 kts 149°
2026-05-05 12:36 44.84040 7.98379 36978 ft 446 kts 149°
2026-05-05 12:37 44.79104 8.03672 36964 ft 446 kts 149°
2026-05-05 12:37 44.74159 8.08964 36971 ft 447 kts 149°
2026-05-05 12:38 44.69210 8.14245 36949 ft 447 kts 149°
2026-05-05 12:38 44.64382 8.19807 36961 ft 450 kts 146°
2026-05-05 12:39 44.59662 8.25604 36973 ft 451 kts 145°
2026-05-05 12:39 44.54939 8.31372 36977 ft 450 kts 146°
2026-05-05 12:40 44.50177 8.37064 36971 ft 450 kts 146°
2026-05-05 12:40 44.45391 8.42733 36962 ft 451 kts 146°
2026-05-05 12:41 44.40597 8.48408 36964 ft 451 kts 146°
2026-05-05 12:41 44.35797 8.54083 36962 ft 452 kts 146°
2026-05-05 12:42 44.30989 8.59754 36959 ft 452 kts 146°
2026-05-05 12:42 44.26180 8.65423 36950 ft 452 kts 146°
2026-05-05 12:43 44.21367 8.71077 36970 ft 452 kts 146°
2026-05-05 12:43 44.16550 8.76727 36955 ft 453 kts 146°
2026-05-05 12:44 44.11732 8.82387 36961 ft 454 kts 146°
2026-05-05 12:44 44.06901 8.88036 36842 ft 453 kts 147°
2026-05-05 12:45 44.04487 8.90846 36160 ft 453 kts 147°
2026-05-05 12:45 44.02067 8.93657 35424 ft 454 kts 147°
2026-05-05 12:45 43.99645 8.96469 34695 ft 454 kts 147°
2026-05-05 12:45 43.97214 8.99287 33967 ft 455 kts 147°
2026-05-05 12:46 43.94780 9.02102 33109 ft 456 kts 147°
2026-05-05 12:46 43.92338 9.04926 32190 ft 458 kts 147°
2026-05-05 12:46 43.89884 9.07767 31260 ft 461 kts 147°
2026-05-05 12:46 43.87411 9.10624 30294 ft 464 kts 146°
2026-05-05 12:47 43.84924 9.13498 29179 ft 467 kts 146°
2026-05-05 12:47 43.82419 9.16390 28002 ft 471 kts 146°
2026-05-05 12:47 43.79896 9.19301 26801 ft 474 kts 146°
2026-05-05 12:47 43.77349 9.22238 25576 ft 478 kts 146°
2026-05-05 12:48 43.74780 9.25196 24326 ft 482 kts 146°
2026-05-05 12:48 43.72191 9.28164 23293 ft 482 kts 146°
2026-05-05 12:48 43.69629 9.31103 22381 ft 476 kts 146°
2026-05-05 12:48 43.67103 9.34004 21561 ft 468 kts 145°
2026-05-05 12:49 43.64654 9.36821 20789 ft 461 kts 145°
2026-05-05 12:49 43.62208 9.39631 20021 ft 454 kts 145°
2026-05-05 12:49 43.59795 9.42396 19303 ft 448 kts 145°
2026-05-05 12:49 43.57416 9.45113 18793 ft 437 kts 145°
2026-05-05 12:50 43.55142 9.47760 18652 ft 420 kts 141°
2026-05-05 12:50 43.53329 9.50863 18536 ft 414 kts 125°
2026-05-05 12:50 43.52238 9.54471 18410 ft 404 kts 108°
2026-05-05 12:50 43.51940 9.58248 18291 ft 392 kts 90°
2026-05-05 12:51 43.52388 9.61873 18163 ft 378 kts 76°
2026-05-05 12:51 43.53127 9.65271 17982 ft 363 kts 75°
2026-05-05 12:51 43.53841 9.68577 17580 ft 357 kts 76°
2026-05-05 12:51 43.54541 9.71837 17114 ft 353 kts 76°
2026-05-05 12:52 43.55226 9.75050 16830 ft 344 kts 76°
2026-05-05 12:52 43.55894 9.78183 16474 ft 338 kts 76°
2026-05-05 12:52 43.56553 9.81278 16005 ft 335 kts 76°
2026-05-05 12:52 43.57205 9.84347 15475 ft 332 kts 76°
2026-05-05 12:53 43.57852 9.87398 14954 ft 330 kts 76°
2026-05-05 12:53 43.58470 9.90436 14448 ft 327 kts 81°
2026-05-05 12:53 43.58409 9.93421 14254 ft 301 kts 111°
2026-05-05 12:53 43.57483 9.95853 13947 ft 278 kts 139°
2026-05-05 12:54 43.54271 9.98034 12970 ft 255 kts 173°
2026-05-05 12:54 43.52542 9.98591 12489 ft 255 kts 173°
2026-05-05 12:54 43.50783 9.98677 11816 ft 251 kts 197°
2026-05-05 12:55 43.49141 9.97905 11271 ft 248 kts 210°
2026-05-05 12:55 43.47634 9.96748 10741 ft 248 kts 213°
2026-05-05 12:55 43.46151 9.95537 10227 ft 247 kts 214°
2026-05-05 12:55 43.44676 9.94321 9697 ft 247 kts 214°
2026-05-05 12:56 43.43110 9.93367 9107 ft 250 kts 193°
2026-05-05 12:56 43.41372 9.93351 8538 ft 254 kts 170°
2026-05-05 12:56 43.39788 9.94448 7995 ft 261 kts 143°
2026-05-05 12:56 43.38690 9.96416 7583 ft 261 kts 117°
2026-05-05 12:57 43.38314 9.98846 7296 ft 262 kts 90°
2026-05-05 12:57 43.38693 10.01288 6960 ft 263 kts 72°
2026-05-05 12:57 43.39258 10.03674 6610 ft 262 kts 72°
2026-05-05 12:57 43.39826 10.06055 6259 ft 262 kts 72°
2026-05-05 12:58 43.40389 10.08422 6008 ft 259 kts 73°
2026-05-05 12:58 43.41098 10.10697 5998 ft 255 kts 60°
2026-05-05 12:58 43.42165 10.12511 5982 ft 243 kts 39°
2026-05-05 12:58 43.43495 10.13918 5753 ft 240 kts 34°
2026-05-05 12:59 43.44839 10.15277 5450 ft 240 kts 34°
2026-05-05 12:59 43.46183 10.16646 5137 ft 240 kts 35°
2026-05-05 12:59 43.47527 10.18019 4820 ft 241 kts 35°
2026-05-05 13:00 43.50221 10.20774 4167 ft 242 kts 36°
2026-05-05 13:00 43.51573 10.22157 3833 ft 241 kts 37°
2026-05-05 13:01 43.55512 10.26194 2893 ft 226 kts 38°
2026-05-05 13:01 43.56753 10.27467 2604 ft 219 kts 36°
2026-05-05 13:01 43.57961 10.28706 2340 ft 212 kts 36°
2026-05-05 13:01 43.59109 10.29886 2037 ft 199 kts 36°
2026-05-05 13:02 43.60189 10.30996 1771 ft 190 kts 36°
2026-05-05 13:02 43.61218 10.32053 1538 ft 179 kts 36°
2026-05-05 13:02 43.62165 10.33028 1321 ft 162 kts 35°
2026-05-05 13:02 43.63039 10.33928 1093 ft 152 kts 37°
2026-05-05 13:03 43.63875 10.34787 916 ft 149 kts 36°
2026-05-05 13:03 43.64698 10.35627 701 ft 145 kts 33°
2026-05-05 13:03 43.65513 10.36446 515 ft 143 kts 35°
2026-05-05 13:03 43.66293 10.37274 293 ft 145 kts 35°
2026-05-05 13:04 43.67110 10.38120 122 ft 147 kts 34°
2026-05-05 13:04 43.67918 10.38972 21 ft 141 kts 35°
2026-05-05 13:04 43.68534 10.39588 18 ft 68 kts 36°
2026-05-05 13:04 43.68903 10.39967 18 ft 66 kts 37°
2026-05-05 13:05 43.69232 10.40311 20 ft 42 kts 37°
2026-05-05 13:05 43.69314 10.40318 19 ft 1 kts 256°
2026-05-05 13:05 43.69312 10.40239 20 ft 12 kts 294°
2026-05-05 13:05 43.69357 10.40154 23 ft 9 kts 307°
2026-05-05 13:06 43.69404 10.40102 22 ft 10 kts 348°
2026-05-05 13:06 43.69495 10.40088 17 ft 16 kts 353°
2026-05-05 13:06 43.69602 10.40063 15 ft 15 kts 352°
2026-05-05 13:06 43.69675 10.40064 15 ft 10 kts 29°
2026-05-05 13:07 43.69706 10.40131 15 ft 6 kts 59°
2026-05-05 13:07 43.69747 10.40149 15 ft 7 kts
2026-05-05 13:07 43.69761 10.40152 15 ft 0 kts